Weather History for Aurora, NE

Change the Weather History Date:

Monday, April 22, 2013

  Actual Average Record
Temperature  
Mean Temperature 40 °F -  
Max Temperature 50 °F 63 °F 92 °F (1989)
Min Temperature 32 °F 40 °F 26 °F (1992)
Degree Days  
Heating Degree Days 24    
Moisture  
Dew Point 38 °F    
Average Humidity 97    
Maximum Humidity 100    
Minimum Humidity 89    
Precipitation  
Precipitation 0.70 in - - ()
Sea Level Pressure  
Sea Level Pressure 30.08 in    
Wind  
Wind Speed 16 mph (NNE)    
Max Wind Speed 30 mph    
Max Gust Speed 39 mph    
Visibility 6 miles    
Events Rain , Snow , Thunderstorm    
Averages and records for this station are not official NWS values.
T = Trace of Precipitation, MM = Missing Value Source: NWS Daily Summary

Daily Weather History Graph

Daily Weather History Graph

Search for Another Location

Airport:

Trip Planner

Search our weather history database for the weather conditions in past years. The results will help you decide how hot, cold, wet, or windy it might be!

Date:

Astronomy

Apr. 22, 2013 Rise Set
Actual Time 6:42 AM CDT 8:19 PM CDT
Civil Twilight 6:13 AM CDT 8:48 PM CDT
Nautical Twilight 5:38 AM CDT 9:23 PM CDT
Astronomical Twilight 5:00 AM CDT 10:01 PM CDT
Moon 5:08 PM CDT (4/22) 4:39 AM CDT (4/22)
Length of Visible Light 14h 35m
Length of Day
13h 37m
Waxing Gibbous, 88% of the Moon is Illuminated
Apr 22
Waxing Gibbous
Apr 25
Full
May 2
Last Quarter
May 9
New
May 17
First Quarter

Hourly Weather History & Observations

Time (CDT) Temp. Windchill Dew Point Humidity Pressure Visibility Wind Dir Wind Speed Gust Speed Precip Events Conditions
12:15 AM 45.3 °F 38.7 °F 43.7 °F 94% 30.11 in 10.0 mi NNE 15.0 mph - N/A   Overcast
12:35 AM 44.6 °F 37.8 °F 43.5 °F 96% 30.11 in 10.0 mi NE 15.0 mph - N/A   Mostly Cloudy
12:55 AM 44.1 °F 37.4 °F 43.2 °F 97% 30.11 in 10.0 mi NNE 13.8 mph - N/A   Overcast
1:15 AM 43.9 °F 37.2 °F 43.3 °F 98% 30.09 in 10.0 mi NE 13.8 mph - N/A   Overcast
1:35 AM 43.0 °F 36.4 °F 43.0 °F 100% 30.09 in 10.0 mi ENE 12.7 mph - N/A   Mostly Cloudy
1:55 AM 42.3 °F 35.1 °F 42.3 °F 100% 30.08 in 10.0 mi NE 13.8 mph 18.4 mph N/A   Mostly Cloudy
2:15 AM 42.3 °F 34.4 °F 42.3 °F 100% 30.08 in 10.0 mi NE 16.1 mph - N/A   Overcast
2:35 AM 42.4 °F 35.3 °F 42.4 °F 100% 30.08 in 7.0 mi ENE 13.8 mph - N/A   Overcast
2:55 AM 42.4 °F 35.7 °F 42.4 °F 100% 30.07 in 7.0 mi ENE 12.7 mph - N/A Thunderstorm Overcast
3:15 AM 42.3 °F 35.1 °F 42.3 °F 100% 30.05 in 5.0 mi ENE 13.8 mph - N/A   Overcast
3:35 AM 42.4 °F 35.3 °F 42.4 °F 100% 30.04 in 4.0 mi East 13.8 mph - N/A   Overcast
3:55 AM 42.1 °F 34.2 °F 42.1 °F 100% 30.03 in 4.0 mi East 16.1 mph - N/A Thunderstorm Unknown
4:15 AM 41.9 °F 35.0 °F 41.9 °F 100% 30.01 in 3.0 mi East 12.7 mph - N/A   Overcast
4:35 AM 42.1 °F 35.7 °F 42.1 °F 100% 30.01 in 4.0 mi ENE 11.5 mph - N/A   Overcast
4:55 AM 42.3 °F 36.8 °F 42.3 °F 100% 30.01 in 4.0 mi East 9.2 mph - N/A   Overcast
5:15 AM 42.4 °F 40.7 °F 42.4 °F 100% 30.02 in 4.0 mi ENE 3.5 mph - N/A   Overcast
5:35 AM 42.4 °F - 42.4 °F 100% 30.03 in 4.0 mi Calm Calm - N/A Rain Rain
5:55 AM 42.4 °F - 42.4 °F 100% 30.03 in 3.0 mi Calm Calm - 0.02 in Rain , Thunderstorm Rain
6:15 AM 42.4 °F 38.1 °F 42.4 °F 100% 30.02 in 3.0 mi NNE 6.9 mph - 0.05 in Rain , Thunderstorm Rain
6:35 AM 42.3 °F 37.9 °F 42.3 °F 100% 30.01 in 2.5 mi NE 6.9 mph - 0.08 in Rain Light Rain
6:55 AM 42.4 °F 38.8 °F 42.4 °F 100% 30.02 in 3.0 mi NNE 5.8 mph - 0.08 in   Light Drizzle
7:15 AM 42.3 °F 37.9 °F 42.3 °F 100% 30.02 in 3.0 mi NE 6.9 mph - 0.01 in Rain Light Rain
7:35 AM 42.1 °F 34.9 °F 42.1 °F 100% 30.02 in 3.0 mi NNE 13.8 mph - 0.03 in Rain Light Rain
7:55 AM 41.7 °F 34.8 °F 41.7 °F 100% 30.01 in 3.0 mi NE 12.7 mph - 0.07 in Rain Light Rain
8:15 AM 42.1 °F 35.7 °F 42.1 °F 100% 30.01 in 2.5 mi NE 11.5 mph - N/A   Overcast
8:35 AM 42.4 °F 36.1 °F 42.4 °F 100% 30.00 in 3.0 mi ENE 11.5 mph - N/A Rain Light Rain
8:55 AM 43.0 °F 35.7 °F 43.0 °F 100% 29.98 in 3.0 mi ENE 15.0 mph - N/A   Overcast
9:15 AM 43.9 °F 37.9 °F 43.9 °F 100% 29.97 in 2.5 mi ENE 11.5 mph - N/A   Overcast
9:35 AM 44.6 °F 38.8 °F 44.6 °F 100% 29.97 in 2.5 mi East 11.5 mph - N/A   Overcast
9:55 AM 45.9 °F 40.8 °F 45.9 °F 100% 29.97 in 3.0 mi ENE 10.4 mph - N/A   Overcast
10:15 AM 47.3 °F - 47.3 °F 100% 29.98 in 3.0 mi East 9.2 mph - N/A   Overcast
10:35 AM 47.7 °F - 47.7 °F 100% 29.97 in 3.0 mi East 8.1 mph - N/A   Overcast
10:55 AM 48.4 °F - 48.4 °F 100% 29.96 in 3.0 mi East 9.2 mph - N/A   Overcast
11:15 AM 49.1 °F - 49.1 °F 100% 29.97 in 3.0 mi ENE 5.8 mph - N/A   Overcast
11:35 AM 49.5 °F - 49.5 °F 100% 29.96 in 3.0 mi NE 8.1 mph - N/A   Overcast
11:55 AM 46.0 °F 39.6 °F 46.0 °F 100% 29.97 in 3.0 mi North 15.0 mph 18.4 mph N/A Rain Light Rain
12:15 PM 42.4 °F 33.3 °F 42.4 °F 100% 29.99 in 2.0 mi NNW 21.9 mph 27.6 mph 0.07 in Rain Heavy Rain
12:35 PM 40.5 °F 30.4 °F 40.5 °F 100% 30.01 in 1.0 mi NNW 23.0 mph 29.9 mph 0.20 in   Overcast
12:55 PM 39.0 °F 27.8 °F 39.0 °F 100% 30.01 in 2.0 mi North 26.5 mph 32.2 mph 0.25 in Rain , Thunderstorm Rain
1:15 PM 37.2 °F 25.9 °F 37.2 °F 100% 30.02 in 1.5 mi North 24.2 mph 31.1 mph 0.07 in Rain Light Rain
1:35 PM 35.6 °F 23.7 °F 35.6 °F 100% 30.04 in 3.0 mi North 24.2 mph 36.8 mph 0.12 in Snow Light Snow
1:55 PM 34.7 °F 21.3 °F 34.7 °F 100% 30.02 in 1.5 mi NNE 29.9 mph 34.5 mph 0.18 in Snow Light Snow
2:15 PM 34.5 °F 22.5 °F 34.5 °F 100% 30.04 in 1.8 mi North 23.0 mph 29.9 mph 0.07 in   Overcast
2:35 PM 34.2 °F 21.8 °F 34.2 °F 100% 30.00 in 4.0 mi NE 24.2 mph 33.4 mph 0.10 in Rain Light Rain
2:55 PM 34.5 °F 22.0 °F 34.5 °F 100% 30.06 in 7.0 mi North 25.3 mph 32.2 mph 0.10 in Rain Light Rain
3:15 PM 34.2 °F 20.8 °F 33.6 °F 98% 30.07 in 10.0 mi North 28.8 mph 33.4 mph N/A   Overcast
3:35 PM 34.0 °F 21.5 °F 33.1 °F 96% 30.07 in 10.0 mi North 24.2 mph 33.4 mph N/A   Overcast
3:55 PM 33.3 °F 20.1 °F 32.0 °F 95% 30.09 in 10.0 mi North 26.5 mph 33.4 mph N/A   Overcast
4:15 PM 33.1 °F 20.1 °F 32.0 °F 96% 30.10 in 10.0 mi North 25.3 mph 33.4 mph N/A   Overcast
4:35 PM 32.9 °F 19.8 °F 31.8 °F 96% 30.11 in 10.0 mi North 25.3 mph 34.5 mph N/A   Overcast
4:55 PM 32.9 °F 21.0 °F 31.6 °F 95% 30.11 in 7.0 mi North 20.7 mph 32.2 mph N/A   Overcast
5:15 PM 32.9 °F 20.4 °F 31.8 °F 96% 30.11 in 1.8 mi North 23.0 mph 31.1 mph N/A Snow Light Snow
5:35 PM 32.9 °F 19.8 °F 31.8 °F 96% 30.12 in 2.0 mi North 25.3 mph 32.2 mph N/A Snow Light Snow
5:55 PM 33.1 °F 19.8 °F 31.8 °F 95% 30.13 in 10.0 mi North 26.5 mph 32.2 mph N/A   Overcast
6:15 PM 33.1 °F 20.1 °F 31.6 °F 94% 30.14 in 10.0 mi North 25.3 mph 33.4 mph N/A   Overcast
6:35 PM 33.3 °F 19.8 °F 31.1 °F 92% 30.16 in 10.0 mi North 27.6 mph 33.4 mph N/A   Overcast
6:55 PM 33.1 °F 19.1 °F 31.1 °F 92% 30.14 in 10.0 mi North 29.9 mph 35.7 mph N/A   Overcast
7:15 PM 33.1 °F 20.1 °F 30.9 °F 92% 30.17 in 10.0 mi North 25.3 mph 33.4 mph N/A   Overcast
7:35 PM 33.4 °F 21.1 °F 31.1 °F 91% 30.18 in 10.0 mi North 23.0 mph 29.9 mph N/A   Overcast
7:55 PM 32.4 °F 18.1 °F 30.9 °F 94% 30.18 in 10.0 mi North 29.9 mph 39.1 mph N/A   Overcast
8:15 PM 32.4 °F 18.4 °F 30.7 °F 94% 30.19 in 10.0 mi North 28.8 mph 35.7 mph N/A   Overcast
8:35 PM 32.5 °F 18.8 °F 30.7 °F 93% 30.20 in 10.0 mi North 27.6 mph 34.5 mph N/A   Overcast
8:55 PM 32.9 °F 19.3 °F 30.9 °F 92% 30.21 in 10.0 mi North 27.6 mph 34.5 mph N/A   Overcast
9:15 PM 32.5 °F 19.6 °F 30.9 °F 94% 30.21 in 10.0 mi North 24.2 mph 29.9 mph N/A   Overcast
9:35 PM 32.4 °F 19.4 °F 30.9 °F 94% 30.19 in 10.0 mi North 24.2 mph 32.2 mph N/A   Overcast
9:55 PM 32.2 °F 18.9 °F 30.0 °F 92% 30.20 in 10.0 mi North 25.3 mph 35.7 mph N/A   Overcast
10:15 PM 32.4 °F 19.7 °F 30.2 °F 92% 30.24 in 10.0 mi North 23.0 mph 35.7 mph N/A   Overcast
10:35 PM 32.4 °F 19.7 °F 30.0 °F 91% 30.27 in 10.0 mi North 23.0 mph 35.7 mph N/A   Overcast
10:55 PM 32.2 °F 19.1 °F 29.8 °F 91% 30.25 in 10.0 mi North 24.2 mph 34.5 mph N/A   Overcast
11:15 PM 32.2 °F 19.1 °F 29.8 °F 91% 30.25 in 10.0 mi North 24.2 mph 33.4 mph N/A   Overcast
11:35 PM 32.0 °F 19.5 °F 29.3 °F 90% 30.26 in 10.0 mi North 21.9 mph 31.1 mph N/A   Overcast
11:55 PM 32.0 °F 20.1 °F 29.1 °F 89% 30.29 in 10.0 mi North 19.6 mph 28.8 mph N/A   Overcast